Find Starlink 36248

NORAD ID: 68979 Int'l Des: 2026-099 Owner: SPXS Country: US Constellation: starlink operational
LEOCIRCULAR

リアルタイム位置

3D地球を読み込み中...

Starlink 36248について

説明を読み込み中...

次回通過

Passes for default location (London). Set your location on the main map for personalized predictions.

高度履歴

Loading altitude history...

軌道要素

1 68979C 26099AE 26125.80881944 -.01433900 00000+0 -20931-2 0 1252
2 68979 53.1614 7.3407 0000302 106.6735 351.5544 16.05148251 16
Epoch: May 5, 2026 • Age: 31 hours

現在のステータス

高度 264.7 km
速度 7.75 km/s
衛星直下点 21.92°N, 51.92°E
打ち上げ日 May 1, 2026
運用期間 4 days
タイプ internet

技術仕様

分類 Payload
質量 575.00 kg
乾燥質量 530.00 kg
総質量 575.00 kg
長さ 0.30 m
直径 4.10 m
スパン 29.00 m
形状 Box + pan
製造者 SPXS
バスタイプ Starlink V2MO
フェーズステータス In Orbit
所有者/国 SPXS/US

Most Searched